Weather History for Big Sandy Reg AP, Prestonsbur, KY

Change the Weather History Date:

Sunday, April 27, 2014

  Actual Average Record
Temperature  
Mean Temperature 66 °F -  
Max Temperature 83 °F - - ()
Min Temperature 48 °F - - ()
Growing Degree Days 16 (Base 50)    
Moisture  
Dew Point 44 °F    
Average Humidity 46    
Maximum Humidity 82    
Minimum Humidity 25    
Precipitation  
Precipitation 0.00 in - - ()
Sea Level Pressure  
Sea Level Pressure 29.95 in    
Wind  
Wind Speed 3 mph (NE)    
Max Wind Speed 9 mph    
Max Gust Speed -    
Visibility 10 miles    
Events      
T = Trace of Precipitation, MM = Missing Value Source: NWS Daily Summary

Daily Weather History Graph

Daily Weather History Graph

Search for Another Location

Airport:

Trip Planner

Search our weather history database for the weather conditions in past years. The results will help you decide how hot, cold, wet, or windy it might be!

Date:

Astronomy

Apr. 27, 2014 Rise Set
Actual Time 6:39 AM EDT 8:17 PM EDT
Civil Twilight 6:11 AM EDT 8:45 PM EDT
Nautical Twilight 5:38 AM EDT 9:19 PM EDT
Astronomical Twilight 5:02 AM EDT 9:54 PM EDT
Moon 5:37 AM EDT (4/27) 6:51 PM EDT (4/27)
Length of Visible Light 14h 33m
Length of Day
13h 37m
Waning Crescent, 3% of the Moon is Illuminated
Apr 27
Waning Crescent
Apr 29
New
May 6
First Quarter
May 14
Full
May 21
Last Quarter

Hourly Weather History & Observations

Time (EDT) Temp. Dew Point Humidity Pressure Visibility Wind Dir Wind Speed Gust Speed Precip Events Conditions
12:15 AM 63.9 °F 37.9 °F 38% 29.96 in 10.0 mi SW 4.6 mph - N/A   Clear
12:35 AM 64.2 °F 38.1 °F 38% 29.96 in 10.0 mi SW 3.5 mph - N/A   Clear
12:55 AM 61.9 °F 38.7 °F 42% 29.96 in 10.0 mi SW 3.5 mph - N/A   Clear
1:15 AM 61.9 °F 38.5 °F 42% 29.96 in 10.0 mi SW 5.8 mph - N/A   Clear
1:35 AM 61.0 °F 38.8 °F 44% 29.97 in 10.0 mi WSW 3.5 mph - N/A   Clear
1:55 AM 60.8 °F 39.2 °F 45% 29.97 in 10.0 mi WSW 3.5 mph - N/A   Clear
2:15 AM 60.1 °F 39.2 °F 46% 29.96 in 10.0 mi Calm Calm - N/A   Clear
2:35 AM 53.8 °F 40.3 °F 60% 29.96 in 10.0 mi North 5.8 mph - N/A   Clear
2:55 AM 55.8 °F 41.2 °F 58% 29.95 in 10.0 mi Calm Calm - N/A   Clear
3:15 AM 55.8 °F 41.4 °F 58% 29.96 in 10.0 mi Calm Calm - N/A   Clear
3:35 AM 56.7 °F 41.0 °F 56% 29.96 in 10.0 mi Calm Calm - N/A   Clear
3:55 AM 55.4 °F 41.0 °F 58% 29.96 in 10.0 mi Calm Calm - N/A   Clear
4:15 AM 54.0 °F 41.0 °F 62% 29.96 in 10.0 mi Calm Calm - N/A   Clear
4:35 AM 53.1 °F 41.7 °F 65% 29.96 in 10.0 mi Calm Calm - N/A   Clear
4:55 AM 52.0 °F 41.2 °F 67% 29.96 in 10.0 mi Calm Calm - N/A   Clear
5:15 AM 51.4 °F 41.2 °F 68% 29.97 in 10.0 mi Calm Calm - N/A   Clear
5:35 AM 50.5 °F 41.2 °F 70% 29.98 in 10.0 mi Calm Calm - N/A   Clear
5:55 AM 50.4 °F 41.2 °F 71% 29.98 in 10.0 mi Calm Calm - N/A   Clear
6:15 AM 49.1 °F 41.9 °F 76% 29.99 in 10.0 mi Calm Calm - N/A   Clear
6:35 AM 48.6 °F 43.2 °F 82% 29.99 in 10.0 mi Calm Calm - N/A   Clear
6:55 AM 50.0 °F 42.8 °F 76% 30.00 in 10.0 mi Calm Calm - N/A   Clear
7:15 AM 48.4 °F 43.2 °F 82% 30.02 in 10.0 mi Calm Calm - N/A   Clear
7:35 AM 50.7 °F 43.0 °F 75% 30.02 in 10.0 mi Calm Calm - N/A   Clear
7:55 AM 52.2 °F 45.1 °F 77% 30.02 in 10.0 mi Calm Calm - N/A   Clear
8:15 AM 55.0 °F 45.5 °F 70% 30.02 in 10.0 mi ENE 3.5 mph - N/A   Clear
8:35 AM 55.8 °F 45.3 °F 68% 30.02 in 10.0 mi NE 4.6 mph - N/A   Clear
9:00 AM 56.3 °F 45.5 °F 67% 30.03 in 10.0 mi NE 4.6 mph - N/A   Clear
9:15 AM 59.0 °F 46.6 °F 63% 30.02 in 10.0 mi ENE 4.6 mph - N/A   Clear
9:35 AM 60.8 °F 47.1 °F 61% 30.03 in 10.0 mi ENE 3.5 mph - N/A   Clear
9:55 AM 62.4 °F 47.3 °F 58% 30.02 in 10.0 mi East 3.5 mph - N/A   Clear
10:15 AM 64.4 °F 47.7 °F 55% 30.02 in 10.0 mi Calm Calm - N/A   Clear
10:35 AM 66.2 °F 47.8 °F 52% 30.03 in 10.0 mi Calm Calm - N/A   Clear
10:55 AM 67.5 °F 48.2 °F 50% 30.03 in 10.0 mi Calm Calm - N/A   Clear
11:15 AM 70.0 °F 48.0 °F 46% 30.02 in 10.0 mi Calm Calm - N/A   Clear
11:35 AM 71.1 °F 47.8 °F 44% 30.02 in 10.0 mi Calm Calm - N/A   Clear
11:55 AM 73.8 °F 47.3 °F 39% 30.01 in 10.0 mi Calm Calm - N/A   Clear
12:15 PM 74.8 °F 46.8 °F 37% 30.00 in 10.0 mi Calm Calm - N/A   Clear
12:35 PM 76.5 °F 46.2 °F 34% 29.99 in 10.0 mi North 3.5 mph - N/A   Clear
12:55 PM 77.9 °F 46.8 °F 33% 29.98 in 10.0 mi ENE 3.5 mph - N/A   Clear
1:15 PM 78.1 °F 46.4 °F 33% 29.97 in 10.0 mi East 3.5 mph - N/A   Clear
1:35 PM 78.4 °F 45.3 °F 31% 29.96 in 10.0 mi South 4.6 mph - N/A   Clear
1:55 PM 79.5 °F 46.2 °F 31% 29.95 in 10.0 mi NNE 5.8 mph - N/A   Clear
2:15 PM 80.2 °F 44.8 °F 29% 29.94 in 10.0 mi East 3.5 mph - N/A   Clear
2:35 PM 80.2 °F 45.1 °F 29% 29.94 in 10.0 mi NE 3.5 mph - N/A   Clear
2:55 PM 81.9 °F 46.2 °F 29% 29.93 in 10.0 mi ESE 3.5 mph - N/A   Clear
3:15 PM 81.9 °F 45.1 °F 27% 29.92 in 10.0 mi NE 3.5 mph - N/A   Clear
3:35 PM 81.7 °F 44.2 °F 27% 29.92 in 10.0 mi Calm Calm - N/A   Clear
4:15 PM 81.9 °F 44.4 °F 27% 29.90 in 10.0 mi NNE 3.5 mph - N/A   Clear
4:35 PM 82.0 °F 43.3 °F 25% 29.90 in 10.0 mi Calm Calm - N/A   Clear
4:55 PM 82.9 °F 46.2 °F 28% 29.89 in 10.0 mi NE 3.5 mph - N/A   Clear
5:15 PM 83.1 °F 43.5 °F 25% 29.88 in 10.0 mi ENE 5.8 mph - N/A   Clear
5:35 PM 82.0 °F 44.6 °F 27% 29.88 in 10.0 mi NNE 4.6 mph - N/A   Clear
5:55 PM 81.5 °F 42.1 °F 25% 29.88 in 10.0 mi NE 4.6 mph - N/A   Clear
6:15 PM 80.2 °F 43.5 °F 27% 29.88 in 10.0 mi NE 4.6 mph - N/A   Clear
6:35 PM 79.3 °F 45.1 °F 30% 29.87 in 10.0 mi ENE 5.8 mph - N/A   Clear
6:55 PM 78.1 °F 45.0 °F 31% 29.87 in 10.0 mi NE 6.9 mph - N/A   Clear
7:15 PM 77.0 °F 45.3 °F 32% 29.87 in 10.0 mi NE 5.8 mph - N/A   Clear
7:35 PM 75.9 °F 45.1 °F 33% 29.87 in 10.0 mi NE 5.8 mph - N/A   Clear
7:55 PM 75.0 °F 45.3 °F 35% 29.88 in 10.0 mi ENE 6.9 mph - N/A   Clear
8:15 PM 73.8 °F 45.3 °F 36% 29.88 in 10.0 mi NE 6.9 mph - N/A   Clear
8:35 PM 73.0 °F 45.3 °F 37% 29.89 in 10.0 mi NE 8.1 mph - N/A   Clear
8:55 PM 72.3 °F 45.3 °F 38% 29.88 in 10.0 mi ENE 9.2 mph - N/A   Clear
9:15 PM 72.3 °F 44.8 °F 37% 29.88 in 10.0 mi ENE 9.2 mph - N/A   Clear
9:35 PM 71.2 °F 45.0 °F 39% 29.89 in 10.0 mi NE 8.1 mph - N/A   Clear
9:55 PM 69.4 °F 45.0 °F 41% 29.89 in 10.0 mi ENE 8.1 mph - N/A   Clear
10:15 PM 69.1 °F 44.8 °F 42% 29.90 in 10.0 mi ENE 5.8 mph - N/A   Clear
10:35 PM 68.2 °F 45.1 °F 43% 29.90 in 10.0 mi NE 3.5 mph - N/A   Clear
10:55 PM 69.3 °F 44.2 °F 40% 29.90 in 10.0 mi NNE 3.5 mph - N/A   Clear
11:15 PM 68.4 °F 44.2 °F 42% 29.89 in 10.0 mi Calm Calm - N/A   Clear
11:35 PM 68.4 °F 44.2 °F 42% 29.90 in 10.0 mi Calm Calm - N/A   Clear
11:55 PM 67.1 °F 44.4 °F 44% 29.90 in 10.0 mi Calm Calm - N/A   Clear